Flag for China Weather past 2 weeks in Guiyang, Guizhou, China

Now
77 °F

Passing clouds.


Feels Like: 79 °F
Forecast: 67 / 86 °F
Wind: 17 mph from South

Location: Guiyang Airport

Current Time: Apr 1, 2015 at 9:44:30 PM

Latest Report: Apr 1, 2015 at 9:00 PM


Visibility: N/A

Pressure: 29.56 "Hg

Humidity: 57%

Dew point: 61 °F

Location of GuiyangLocation

Historic Weather in Guiyang — Graph

°F

Guiyang temperature yesterday

Maximum temperature yesterday: 82 °F (at 4:00 PM)
Minimum temperature yesterday: 64 °F (at 4:00 AM)
Average temperature yesterday: 73 °F

Past Weeks' High & Low Weather Summary

 TemperatureHumidityPressure
High88 °F (Mar 19, 2:00 PM)100% (Mar 19, 2:00 AM)30.36 "Hg (Mar 19, 2:00 AM)
Low46 °F (Mar 24, 8:00 PM)31% (Mar 19, 3:00 PM)29.50 "Hg (Apr 1, 5:00 PM)
Average61 °F82%30.03 "Hg
* Reported Mar 17 8:00 PM — Apr 1 8:00 PM, Guiyang, Weather by CustomWeather, © 2015

Note: Actual official high and low records may vary slightly from our data, if they occured in-between our weather recording intervals... More about our weather records

Advertising

Guiyang weather history for previous 24 hours

 ConditionsComfort  
Time TempWeatherWind HumidityBarometerVisibility
8:00 PM
Wed, Apr 1
79 °FClear.17 mph51%29.56 "Hg10 mi
7:00 PM79 °FSunny.17 mph48%29.53 "Hg10 mi
6:00 PM82 °FSunny.22 mph45%29.53 "Hg10 mi
5:00 PM84 °FSunny.26 mph40%29.50 "Hg10 mi
4:00 PM84 °FPassing clouds.22 mph40%29.53 "HgN/A
3:00 PM86 °FPassing clouds.26 mph40%29.56 "HgN/A
2:00 PM84 °FPassing clouds.24 mph45%29.59 "HgN/A
1:00 PM79 °FSunny.24 mph51%29.65 "Hg10 mi
12:00 PM79 °FPassing clouds.24 mph54%29.68 "HgN/A
11:00 AM77 °FPassing clouds.17 mph61%29.71 "HgN/A
10:00 AM73 °FSunny.17 mph65%29.71 "Hg10 mi
9:00 AM72 °FPassing clouds.13 mph69%29.71 "HgN/A
8:00 AM70 °FPassing clouds.17 mph73%29.71 "HgN/A
7:00 AM68 °FPassing clouds.15 mph78%29.68 "HgN/A
6:00 AM70 °FPassing clouds.13 mph73%29.68 "HgN/A
5:00 AM70 °FPassing clouds.15 mph73%29.65 "HgN/A
4:00 AM70 °FPassing clouds.15 mph73%29.65 "HgN/A
3:00 AM70 °FPassing clouds.13 mph73%29.65 "HgN/A
2:00 AM70 °FPassing clouds.10 mph73%29.68 "HgN/A
1:00 AM72 °FPassing clouds.13 mph73%29.71 "HgN/A
12:00 AM72 °FPassing clouds.13 mph73%29.71 "HgN/A
11:00 PM
Tue, Mar 31
72 °FPartly cloudy.13 mph73%29.71 "HgN/A
10:00 PM72 °FPassing clouds.13 mph73%29.71 "HgN/A
9:00 PM72 °FPassing clouds.13 mph73%29.68 "HgN/A
Weather by CustomWeather, © 2015

See weather overviewHow to use our weather pages